Location: Holmbach
(49.5093°N, 8.8411°E)
Time: 21:06:27
(UTC+00:00)

USA 215 - Pass Details

Date: 17 June 2025
Orbit: 1102 x 1105 km, 123.0° (Epoch: 12 July)

Event Time Altitude Azimuth Distance (km) Brightness Sun altitude
Exits shadow 20:16:47 - 159° (SSE) 3,485 5.3 -5.9°
Reaches altitude 10° 20:18:20 10° 165° (SSE) 2,952 5.0 -6.1°
Maximum altitude 20:24:11 35° 229° (SW) 1,708 4.3 -6.7°
Drops below altitude 10° 20:30:04 10° 293° (WNW) 2,966 6.7 -7.3°
Sets 20:32:50 0° 303° (WNW) 3,927 7.8 -7.6°
